Location: Aalen
(48.8330°N, 10.1000°E)
Time: 14:33:31
(UTC+02:00)

EO-88 - Visible Passes

Search period start: 28 March 2023 00:00
Search period end: 07 April 2023 00:00
Orbit: 396 x 400 km, 97.2° (Epoch: 28 March)

Date Brightness Start Highest point End Pass type
(mag) Time Alt. Az. Time Alt. Az. Time Alt. Az.
28 Mar ? 22:02:10 12° NNE 22:02:10 12° NNE 22:02:32 10° NNE visible
29 Mar ? 22:43:11 15° N 22:43:11 15° N 22:43:49 10° N visible
30 Mar ? 21:51:28 11° NNE 21:51:28 11° NNE 21:51:44 10° NNE visible
30 Mar ? 23:24:00 11° NNW 23:24:00 11° NNW 23:24:09 10° NNW visible
31 Mar ? 22:32:07 17° N 22:32:07 17° N 22:32:56 10° N visible
01 Apr ? 23:12:35 14° NNW 23:12:35 14° NNW 23:13:07 10° NNW visible
02 Apr ? 22:20:20 17° NNE 22:20:20 17° NNE 22:21:18 10° N visible
03 Apr ? 23:00:26 18° NNW 23:00:26 18° NNW 23:01:19 10° NNW visible
04 Apr ? 22:07:52 16° NNE 22:07:52 16° NNE 22:08:53 10° NNE visible
04 Apr ? 23:40:21 10° NW 23:40:21 10° NW 23:40:25 10° NW visible
05 Apr ? 22:47:36 21° N 22:47:36 21° N 22:48:46 10° N visible
06 Apr ? 21:54:41 14° NE 21:54:41 14° NE 21:55:35 10° NNE visible
06 Apr ? 23:27:09 14° NW 23:27:09 14° NW 23:27:47 10° NNW visible
